Flag for Germany Weather past 2 weeks in Gronau (Westfalen), North Rhine-Westphalia, Germany

Now
55 °F

Cool.


Feels Like: 52 °F
Forecast: 51 / 60 °F
Wind: 13 mph from West

Location: Rheine-Bentlage

Current Time: Sep 5, 2015 at 10:05:31 AM

Latest Report: Sep 5, 2015 at 9:20 AM


Visibility: N/A

Pressure: 29.89 "Hg

Humidity: 88%

Dew point: 52 °F

Location of Gronau (Westfalen)Location

Historic Weather in Gronau (Westfalen) — Graph

°F

Gronau (Westfalen) temperature yesterday

Maximum temperature yesterday: 63 °F (at 2:20 PM)
Minimum temperature yesterday: 52 °F (at 3:20 AM)
Average temperature yesterday: 56 °F

Past Weeks' High & Low Weather Summary

 TemperatureHumidityPressure
High86 °F (Aug 31, 4:20 PM)100% (Aug 24, 5:20 AM)30.27 "Hg (Aug 24, 5:20 AM)
Low48 °F (Aug 29, 4:20 AM)34% (Aug 22, 4:20 PM)29.50 "Hg (Aug 24, 6:20 PM)
Average64 °F76%29.93 "Hg
* Reported Aug 21 8:20 AM — Sep 5 8:20 AM, Gronau (Westfalen), Weather by CustomWeather, © 2015

Note: Actual official high and low records may vary slightly from our data, if they occured in-between our weather recording intervals... More about our weather records

Advertising

Gronau (Westfalen) weather history for previous 24 hours

 ConditionsComfort  
Time TempWeatherWind HumidityBarometerVisibility
8:20 AM
Sat, Sep 5
54 °FCool.10 mph94%29.89 "HgN/A
7:20 AM54 °FCool.7 mph94%29.89 "HgN/A
6:20 AM54 °FCool.8 mph100%29.89 "HgN/A
5:20 AM54 °FCool.10 mph94%29.89 "HgN/A
4:20 AM54 °FCool.7 mph94%29.89 "HgN/A
3:20 AM54 °FCool.8 mph100%29.89 "HgN/A
2:20 AM55 °FCool.8 mph94%29.86 "HgN/A
1:20 AM55 °FCool.9 mph100%29.86 "HgN/A
12:20 AM55 °FCool.9 mph100%29.86 "HgN/A
11:20 PM
Fri, Sep 4
55 °FCool.8 mph94%29.83 "HgN/A
10:20 PM55 °FCool.10 mph94%29.83 "HgN/A
9:20 PM55 °FCool.10 mph88%29.83 "HgN/A
8:20 PM55 °FCool.12 mph88%29.83 "HgN/A
7:20 PM55 °FCool.12 mph88%29.83 "HgN/A
6:20 PM59 °FCool.12 mph77%29.83 "HgN/A
5:20 PM61 °FCool.14 mph68%29.83 "HgN/A
4:20 PM63 °FMild.16 mph59%29.86 "HgN/A
3:20 PM61 °FCool.13 mph68%29.86 "HgN/A
2:20 PM63 °FMild.14 mph68%29.89 "HgN/A
1:20 PM61 °FCool.15 mph68%29.89 "HgN/A
12:20 PM59 °FBroken clouds.14 mph72%29.89 "HgN/A
11:20 AM59 °FBroken clouds.12 mph77%29.89 "HgN/A
10:20 AM57 °FBroken clouds.10 mph77%29.89 "HgN/A
Weather by CustomWeather, © 2015

See weather overviewHow to use our weather pages